GLD1319 SBRJ-SBGW

Flight info

Callsign GLD1319
Flight time 1h 24m
Altitude 4500
Route 2300S04308W REA 2232S04408W 2229S04429W 2240S04500W REA 2246S04508W
Aircraft SAVG/L-SDFGIRY/S

Departure

Time 2026-04-12 10:07
Airport Santos Dumont Airport (SBRJ)

Arrival

Time 2026-04-12 11:32
Airport Edu Chaves Field (SBGW)
Time Latitude Longitude Altitude Speed Heading
2026-04-12 09:58 -22.90870 -43.16663 25 ft 0 kts 355°
2026-04-12 10:04 -22.90869 -43.16663 25 ft 1 kts 355°
2026-04-12 10:04 -22.90873 -43.16644 25 ft 9 kts 150°
2026-04-12 10:04 -22.90887 -43.16567 25 ft 10 kts 95°
2026-04-12 10:05 -22.90975 -43.16546 25 ft 18 kts 175°
2026-04-12 10:05 -22.91101 -43.16529 25 ft 17 kts 165°
2026-04-12 10:05 -22.91219 -43.16513 24 ft 17 kts 175°
2026-04-12 10:05 -22.91326 -43.16507 24 ft 15 kts 176°
2026-04-12 10:06 -22.91421 -43.16493 24 ft 12 kts 142°
2026-04-12 10:06 -22.91493 -43.16415 23 ft 14 kts 130°
2026-04-12 10:06 -22.91504 -43.16325 16 ft 7 kts 11°
2026-04-12 10:06 -22.91393 -43.16340 16 ft 42 kts 324°
2026-04-12 10:07 -22.90974 -43.16370 127 ft 61 kts
2026-04-12 10:07 -22.90454 -43.16377 336 ft 85 kts
2026-04-12 10:07 -22.89820 -43.16371 568 ft 92 kts
2026-04-12 10:07 -22.89252 -43.16554 854 ft 86 kts 323°
2026-04-12 10:08 -22.88904 -43.17104 1046 ft 94 kts 291°
2026-04-12 10:08 -22.88809 -43.17817 1249 ft 96 kts 267°
2026-04-12 10:08 -22.89048 -43.18470 1510 ft 93 kts 227°
2026-04-12 10:08 -22.89605 -43.18849 1668 ft 101 kts 197°
2026-04-12 10:09 -22.90324 -43.19014 1731 ft 108 kts 185°
2026-04-12 10:09 -22.91069 -43.19079 1742 ft 109 kts 182°
2026-04-12 10:09 -22.91835 -43.19163 1714 ft 110 kts 185°
2026-04-12 10:09 -22.92601 -43.19303 1622 ft 118 kts 200°
2026-04-12 10:10 -22.93351 -43.19673 1545 ft 117 kts 174°
2026-04-12 10:10 -22.93933 -43.19238 1601 ft 102 kts 106°
2026-04-12 10:10 -22.94108 -43.18485 1601 ft 104 kts 94°
2026-04-12 10:10 -22.94197 -43.17707 1603 ft 103 kts 93°
2026-04-12 10:11 -22.94258 -43.16940 1608 ft 103 kts 93°
2026-04-12 10:11 -22.94316 -43.16174 1607 ft 104 kts 92°
2026-04-12 10:11 -22.94384 -43.15390 1604 ft 105 kts 92°
2026-04-12 10:11 -22.94508 -43.14611 1612 ft 108 kts 116°
2026-04-12 10:12 -22.95169 -43.14211 1619 ft 115 kts 164°
2026-04-12 10:12 -22.95964 -43.14196 1618 ft 120 kts 198°
2026-04-12 10:12 -22.96763 -43.14394 1613 ft 117 kts 169°
2026-04-12 10:12 -22.97547 -43.14165 1611 ft 117 kts 159°
2026-04-12 10:13 -22.98331 -43.13927 1612 ft 117 kts 160°
2026-04-12 10:13 -22.99105 -43.13681 1606 ft 115 kts 159°
2026-04-12 10:13 -22.99865 -43.13447 1609 ft 113 kts 166°
2026-04-12 10:13 -23.00641 -43.13583 1608 ft 118 kts 199°
2026-04-12 10:14 -23.01423 -43.13864 1610 ft 118 kts 194°
2026-04-12 10:14 -23.02223 -43.14131 1610 ft 121 kts 195°
2026-04-12 10:14 -23.03026 -43.14402 1611 ft 120 kts 194°
2026-04-12 10:14 -23.03819 -43.14667 1614 ft 118 kts 194°
2026-04-12 10:15 -23.04593 -43.14992 1616 ft 122 kts 215°
2026-04-12 10:15 -23.05041 -43.15753 1622 ft 121 kts 258°
2026-04-12 10:15 -23.05130 -43.16663 1627 ft 122 kts 268°
2026-04-12 10:15 -23.05220 -43.17586 1624 ft 122 kts 266°
2026-04-12 10:16 -23.05316 -43.18490 1623 ft 119 kts 265°
2026-04-12 10:16 -23.05411 -43.19384 1619 ft 118 kts 266°
2026-04-12 10:16 -23.05503 -43.20262 1616 ft 117 kts 266°
2026-04-12 10:16 -23.05597 -43.21130 1617 ft 116 kts 266°
2026-04-12 10:17 -23.05692 -43.22001 1647 ft 115 kts 267°
2026-04-12 10:17 -23.05784 -43.22860 1635 ft 116 kts 266°
2026-04-12 10:17 -23.05930 -43.23713 1639 ft 113 kts 248°
2026-04-12 10:17 -23.06067 -43.24546 1642 ft 114 kts 273°
2026-04-12 10:18 -23.06104 -43.25415 1640 ft 116 kts 269°
2026-04-12 10:18 -23.06173 -43.26289 1636 ft 115 kts 267°
2026-04-12 10:18 -23.06255 -43.27154 1639 ft 115 kts 266°
2026-04-12 10:18 -23.06339 -43.28017 1657 ft 114 kts 266°
2026-04-12 10:19 -23.06427 -43.28829 1840 ft 99 kts 265°
2026-04-12 10:19 -23.06514 -43.29533 2081 ft 93 kts 266°
2026-04-12 10:19 -23.06593 -43.30237 2271 ft 95 kts 264°
2026-04-12 10:19 -23.06691 -43.30957 2461 ft 97 kts 266°
2026-04-12 10:20 -23.06771 -43.31688 2666 ft 98 kts 266°
2026-04-12 10:20 -23.06846 -43.32422 2863 ft 97 kts 265°
2026-04-12 10:20 -23.06942 -43.33153 3031 ft 100 kts 270°
2026-04-12 10:20 -23.06918 -43.33944 3029 ft 111 kts 277°
2026-04-12 10:21 -23.06936 -43.34803 3029 ft 117 kts 273°
2026-04-12 10:21 -23.06962 -43.35691 3029 ft 119 kts 273°
2026-04-12 10:21 -23.07104 -43.36572 3030 ft 119 kts 255°
2026-04-12 10:21 -23.07192 -43.37452 3029 ft 118 kts 275°
2026-04-12 10:22 -23.07225 -43.38341 3028 ft 118 kts 269°
2026-04-12 10:22 -23.07518 -43.39177 3036 ft 120 kts 254°
2026-04-12 10:22 -23.07633 -43.40079 3042 ft 121 kts 266°
2026-04-12 10:22 -23.07724 -43.40995 3043 ft 122 kts 266°
2026-04-12 10:23 -23.07812 -43.41908 3044 ft 121 kts 266°
2026-04-12 10:23 -23.07902 -43.42821 3041 ft 121 kts 266°
2026-04-12 10:23 -23.07991 -43.43728 3041 ft 121 kts 266°
2026-04-12 10:23 -23.08084 -43.44640 3042 ft 121 kts 267°
2026-04-12 10:24 -23.08174 -43.45551 3039 ft 121 kts 268°
2026-04-12 10:24 -23.07967 -43.46397 3045 ft 115 kts 312°
2026-04-12 10:24 -23.07373 -43.46926 3050 ft 108 kts 345°
2026-04-12 10:24 -23.06655 -43.47129 3049 ft 106 kts 353°
2026-04-12 10:25 -23.05951 -43.47343 3052 ft 107 kts 352°
2026-04-12 10:25 -23.05235 -43.47561 3051 ft 107 kts 352°
2026-04-12 10:25 -23.04515 -43.47778 3050 ft 107 kts 351°
2026-04-12 10:25 -23.03797 -43.47996 3048 ft 107 kts 351°
2026-04-12 10:26 -23.03116 -43.48213 3212 ft 94 kts 351°
2026-04-12 10:26 -23.02519 -43.48411 3453 ft 87 kts 351°
2026-04-12 10:26 -23.01929 -43.48629 3535 ft 96 kts 355°
2026-04-12 10:26 -23.01474 -43.49090 3518 ft 98 kts 261°
2026-04-12 10:27 -23.01339 -43.49765 3545 ft 96 kts 338°
2026-04-12 10:27 -23.00806 -43.49573 3556 ft 89 kts 52°
2026-04-12 10:27 -23.00238 -43.49238 3550 ft 101 kts 16°
2026-04-12 10:27 -22.99514 -43.49324 3552 ft 107 kts 357°
2026-04-12 10:28 -22.98782 -43.49493 3552 ft 108 kts 355°
2026-04-12 10:28 -22.98052 -43.49698 3551 ft 108 kts 353°
2026-04-12 10:28 -22.97336 -43.49912 3552 ft 108 kts 353°
2026-04-12 10:28 -22.96604 -43.50135 3554 ft 109 kts 353°
2026-04-12 10:29 -22.95857 -43.50360 3547 ft 114 kts 352°
2026-04-12 10:29 -22.95117 -43.50598 3542 ft 108 kts 348°
2026-04-12 10:29 -22.94426 -43.50811 3528 ft 94 kts 355°
2026-04-12 10:29 -22.93817 -43.51001 3546 ft 88 kts 351°
2026-04-12 10:30 -22.93235 -43.51206 3553 ft 95 kts 355°
2026-04-12 10:30 -22.92561 -43.51407 3553 ft 105 kts 354°
2026-04-12 10:30 -22.91843 -43.51615 3553 ft 108 kts 354°
2026-04-12 10:30 -22.91117 -43.51831 3553 ft 109 kts 353°
2026-04-12 10:31 -22.90388 -43.52050 3546 ft 108 kts 353°
2026-04-12 10:31 -22.89663 -43.52269 3553 ft 109 kts 353°
2026-04-12 10:31 -22.88920 -43.52491 3547 ft 111 kts 353°
2026-04-12 10:31 -22.88189 -43.52712 3537 ft 107 kts 354°
2026-04-12 10:32 -22.87478 -43.52928 3535 ft 106 kts 353°
2026-04-12 10:32 -22.86763 -43.53147 3540 ft 108 kts 353°
2026-04-12 10:32 -22.86036 -43.53367 3532 ft 109 kts 353°
2026-04-12 10:32 -22.85303 -43.53590 3528 ft 109 kts 353°
2026-04-12 10:33 -22.84569 -43.53812 3540 ft 110 kts 353°
2026-04-12 10:33 -22.83826 -43.54037 3539 ft 112 kts 353°
2026-04-12 10:33 -22.83083 -43.54261 3531 ft 105 kts 354°
2026-04-12 10:33 -22.82411 -43.54461 3557 ft 102 kts 354°
2026-04-12 10:34 -22.81713 -43.54683 3543 ft 105 kts 354°
2026-04-12 10:34 -22.81014 -43.54904 3547 ft 105 kts 353°
2026-04-12 10:34 -22.80294 -43.55118 3539 ft 109 kts 353°
2026-04-12 10:34 -22.79565 -43.55338 3545 ft 109 kts 352°
2026-04-12 10:35 -22.78834 -43.55560 3537 ft 109 kts 352°
2026-04-12 10:35 -22.78100 -43.55781 3541 ft 109 kts 352°
2026-04-12 10:35 -22.77369 -43.56003 3545 ft 109 kts 351°
2026-04-12 10:35 -22.76639 -43.56224 3544 ft 109 kts 351°
2026-04-12 10:36 -22.75912 -43.56446 3544 ft 109 kts 352°
2026-04-12 10:36 -22.75183 -43.56667 3539 ft 109 kts 351°
2026-04-12 10:36 -22.74453 -43.56887 3549 ft 109 kts 352°
2026-04-12 10:36 -22.73722 -43.57109 3548 ft 110 kts 352°
2026-04-12 10:37 -22.72985 -43.57333 3552 ft 110 kts 351°
2026-04-12 10:37 -22.72258 -43.57553 3552 ft 109 kts 351°
2026-04-12 10:37 -22.71524 -43.57776 3530 ft 111 kts 352°
2026-04-12 10:37 -22.70754 -43.58018 3405 ft 118 kts 344°
2026-04-12 10:38 -22.70122 -43.58608 3266 ft 125 kts 307°
2026-04-12 10:38 -22.69864 -43.59508 3129 ft 128 kts 274°
2026-04-12 10:38 -22.69884 -43.60464 3004 ft 127 kts 271°
2026-04-12 10:38 -22.69902 -43.61415 2876 ft 126 kts 268°
2026-04-12 10:39 -22.69981 -43.62356 2754 ft 125 kts 268°
2026-04-12 10:39 -22.69960 -43.63292 2626 ft 123 kts 276°
2026-04-12 10:39 -22.69924 -43.64185 2564 ft 116 kts 273°
2026-04-12 10:39 -22.69917 -43.65041 2555 ft 112 kts 272°
2026-04-12 10:40 -22.69916 -43.65882 2551 ft 111 kts 272°
2026-04-12 10:40 -22.69915 -43.66713 2551 ft 110 kts 272°
2026-04-12 10:40 -22.69917 -43.67545 2552 ft 111 kts 272°
2026-04-12 10:40 -22.69895 -43.68373 2549 ft 102 kts 302°
2026-04-12 10:41 -22.69473 -43.68862 2548 ft 92 kts 313°
2026-04-12 10:41 -22.69154 -43.69428 2556 ft 96 kts 274°
2026-04-12 10:41 -22.69518 -43.70060 2558 ft 106 kts 221°
2026-04-12 10:41 -22.69926 -43.70724 2571 ft 109 kts 261°
2026-04-12 10:42 -22.69949 -43.71537 2567 ft 110 kts 272°
2026-04-12 10:42 -22.69740 -43.72322 2565 ft 110 kts 296°
2026-04-12 10:42 -22.69434 -43.73089 2568 ft 111 kts 295°
2026-04-12 10:42 -22.69129 -43.73854 2566 ft 111 kts 295°
2026-04-12 10:43 -22.68557 -43.75300 2814 ft 95 kts 294°
2026-04-12 10:43 -22.68285 -43.75960 2929 ft 96 kts 298°
2026-04-12 10:43 -22.68005 -43.76620 3069 ft 96 kts 296°
2026-04-12 10:44 -22.67734 -43.77285 3216 ft 97 kts 296°
2026-04-12 10:44 -22.67462 -43.77953 3348 ft 97 kts 297°
2026-04-12 10:44 -22.67192 -43.78629 3491 ft 98 kts 296°
2026-04-12 10:44 -22.66921 -43.79306 3619 ft 99 kts 296°
2026-04-12 10:45 -22.66648 -43.79988 3751 ft 99 kts 297°
2026-04-12 10:45 -22.66374 -43.80675 3892 ft 100 kts 296°
2026-04-12 10:45 -22.66099 -43.81364 4021 ft 101 kts 296°
2026-04-12 10:45 -22.65819 -43.82061 4135 ft 101 kts 297°
2026-04-12 10:46 -22.65542 -43.82757 4280 ft 100 kts 296°
2026-04-12 10:46 -22.65268 -43.83444 4413 ft 101 kts 296°
2026-04-12 10:46 -22.64990 -43.84139 4556 ft 101 kts 296°
2026-04-12 10:46 -22.64693 -43.84874 4570 ft 111 kts 296°
2026-04-12 10:47 -22.64384 -43.85658 4577 ft 114 kts 294°
2026-04-12 10:47 -22.64064 -43.86461 4581 ft 116 kts 298°
2026-04-12 10:47 -22.63727 -43.87259 4578 ft 117 kts 296°
2026-04-12 10:47 -22.63403 -43.88063 4577 ft 116 kts 296°
2026-04-12 10:48 -22.63084 -43.88860 4576 ft 115 kts 295°
2026-04-12 10:48 -22.62767 -43.89659 4576 ft 116 kts 296°
2026-04-12 10:48 -22.62447 -43.90455 4579 ft 116 kts 296°
2026-04-12 10:48 -22.62126 -43.91262 4580 ft 118 kts 296°
2026-04-12 10:49 -22.61799 -43.92073 4576 ft 116 kts 296°
2026-04-12 10:49 -22.61476 -43.92884 4577 ft 118 kts 296°
2026-04-12 10:49 -22.61156 -43.93685 4579 ft 118 kts 296°
2026-04-12 10:49 -22.60834 -43.94493 4578 ft 116 kts 296°
2026-04-12 10:50 -22.60517 -43.95290 4579 ft 116 kts 296°
2026-04-12 10:50 -22.60190 -43.96100 4579 ft 118 kts 295°
2026-04-12 10:50 -22.59878 -43.96923 4580 ft 119 kts 297°
2026-04-12 10:50 -22.59539 -43.97735 4577 ft 116 kts 296°
2026-04-12 10:51 -22.59218 -43.98533 4576 ft 115 kts 296°
2026-04-12 10:51 -22.59008 -43.99063 4582 ft 116 kts 296°
2026-04-12 10:51 -22.58681 -43.99872 4580 ft 118 kts 296°
2026-04-12 10:51 -22.58354 -44.00679 4575 ft 116 kts 296°
2026-04-12 10:52 -22.58046 -44.01488 4578 ft 117 kts 293°
2026-04-12 10:52 -22.57740 -44.02309 4580 ft 117 kts 295°
2026-04-12 10:52 -22.57419 -44.03119 4583 ft 117 kts 295°
2026-04-12 10:52 -22.57093 -44.03922 4578 ft 115 kts 295°
2026-04-12 10:53 -22.56781 -44.04718 4548 ft 116 kts 296°
2026-04-12 10:53 -22.56457 -44.05520 4502 ft 116 kts 296°
2026-04-12 10:53 -22.56144 -44.06320 4501 ft 115 kts 295°
2026-04-12 10:53 -22.55824 -44.07109 4506 ft 115 kts 298°
2026-04-12 10:54 -22.55473 -44.07899 4504 ft 117 kts 297°
2026-04-12 10:54 -22.55141 -44.08695 4502 ft 117 kts 296°
2026-04-12 10:54 -22.54818 -44.09492 4497 ft 114 kts 296°
2026-04-12 10:54 -22.54497 -44.10287 4496 ft 116 kts 296°
2026-04-12 10:55 -22.54175 -44.11082 4494 ft 115 kts 296°
2026-04-12 10:55 -22.53861 -44.11875 4492 ft 115 kts 296°
2026-04-12 10:55 -22.53545 -44.12673 4497 ft 116 kts 296°
2026-04-12 10:55 -22.53248 -44.13468 4493 ft 116 kts 287°
2026-04-12 10:56 -22.53134 -44.14334 4494 ft 117 kts 279°
2026-04-12 10:56 -22.53017 -44.15203 4502 ft 116 kts 280°
2026-04-12 10:56 -22.52896 -44.16067 4498 ft 116 kts 281°
2026-04-12 10:56 -22.52772 -44.16929 4498 ft 116 kts 281°
2026-04-12 10:57 -22.52654 -44.17786 4500 ft 115 kts 281°
2026-04-12 10:57 -22.52531 -44.18632 4499 ft 115 kts 281°
2026-04-12 10:57 -22.52412 -44.19493 4500 ft 117 kts 279°
2026-04-12 10:57 -22.52315 -44.20360 4501 ft 116 kts 279°
2026-04-12 10:58 -22.52193 -44.21230 4504 ft 118 kts 283°
2026-04-12 10:58 -22.52044 -44.22105 4503 ft 119 kts 281°
2026-04-12 10:58 -22.51918 -44.22970 4506 ft 116 kts 281°
2026-04-12 10:58 -22.51790 -44.23836 4508 ft 118 kts 281°
2026-04-12 10:59 -22.51669 -44.24702 4498 ft 115 kts 281°
2026-04-12 10:59 -22.51546 -44.25557 4500 ft 116 kts 281°
2026-04-12 10:59 -22.51421 -44.26425 4499 ft 118 kts 281°
2026-04-12 10:59 -22.51298 -44.27300 4499 ft 117 kts 280°
2026-04-12 11:00 -22.51171 -44.28170 4500 ft 116 kts 281°
2026-04-12 11:00 -22.51051 -44.29025 4502 ft 115 kts 281°
2026-04-12 11:00 -22.50929 -44.29893 4504 ft 117 kts 279°
2026-04-12 11:00 -22.50829 -44.30776 4507 ft 119 kts 279°
2026-04-12 11:01 -22.50711 -44.31654 4503 ft 116 kts 280°
2026-04-12 11:01 -22.50595 -44.32504 4504 ft 115 kts 281°
2026-04-12 11:01 -22.50469 -44.33379 4504 ft 118 kts 281°
2026-04-12 11:01 -22.50343 -44.34245 4508 ft 117 kts 281°
2026-04-12 11:02 -22.50218 -44.35116 4510 ft 117 kts 281°
2026-04-12 11:02 -22.50094 -44.35977 4504 ft 118 kts 281°
2026-04-12 11:02 -22.49970 -44.36849 4508 ft 117 kts 280°
2026-04-12 11:02 -22.49843 -44.37722 4509 ft 118 kts 281°
2026-04-12 11:03 -22.49720 -44.38586 4504 ft 115 kts 280°
2026-04-12 11:03 -22.49598 -44.39440 4499 ft 115 kts 281°
2026-04-12 11:03 -22.49484 -44.40291 4498 ft 114 kts 280°
2026-04-12 11:03 -22.49359 -44.41143 4505 ft 117 kts 281°
2026-04-12 11:04 -22.49228 -44.42013 4505 ft 118 kts 281°
2026-04-12 11:04 -22.49101 -44.42878 4507 ft 116 kts 281°
2026-04-12 11:04 -22.48981 -44.43723 4507 ft 115 kts 280°
2026-04-12 11:04 -22.48858 -44.44577 4507 ft 115 kts 281°
2026-04-12 11:05 -22.48731 -44.45439 4504 ft 116 kts 281°
2026-04-12 11:05 -22.48608 -44.46311 4502 ft 117 kts 281°
2026-04-12 11:05 -22.48485 -44.47176 4506 ft 117 kts 280°
2026-04-12 11:05 -22.48365 -44.48054 4507 ft 119 kts 278°
2026-04-12 11:06 -22.48501 -44.48912 4503 ft 119 kts 245°
2026-04-12 11:06 -22.48824 -44.49742 4505 ft 120 kts 249°
2026-04-12 11:06 -22.49119 -44.50581 4503 ft 119 kts 251°
2026-04-12 11:06 -22.49396 -44.51426 4504 ft 120 kts 248°
2026-04-12 11:07 -22.49711 -44.52258 4504 ft 118 kts 248°
2026-04-12 11:07 -22.50014 -44.53087 4507 ft 119 kts 248°
2026-04-12 11:07 -22.50315 -44.53926 4509 ft 120 kts 249°
2026-04-12 11:07 -22.50616 -44.54769 4505 ft 120 kts 249°
2026-04-12 11:08 -22.50915 -44.55613 4507 ft 121 kts 248°
2026-04-12 11:08 -22.51217 -44.56457 4507 ft 121 kts 249°
2026-04-12 11:08 -22.51517 -44.57301 4507 ft 120 kts 249°
2026-04-12 11:08 -22.51815 -44.58140 4510 ft 119 kts 249°
2026-04-12 11:09 -22.52114 -44.58979 4510 ft 122 kts 249°
2026-04-12 11:09 -22.52419 -44.59829 4505 ft 119 kts 249°
2026-04-12 11:09 -22.52717 -44.60669 4504 ft 119 kts 249°
2026-04-12 11:09 -22.53015 -44.61510 4498 ft 120 kts 249°
2026-04-12 11:10 -22.53308 -44.62340 4505 ft 116 kts 250°
2026-04-12 11:10 -22.53602 -44.63156 4507 ft 117 kts 248°
2026-04-12 11:10 -22.53899 -44.63994 4507 ft 120 kts 249°
2026-04-12 11:10 -22.54199 -44.64835 4511 ft 120 kts 249°
2026-04-12 11:11 -22.54498 -44.65678 4510 ft 120 kts 248°
2026-04-12 11:11 -22.54799 -44.66519 4509 ft 120 kts 249°
2026-04-12 11:11 -22.55094 -44.67353 4509 ft 118 kts 249°
2026-04-12 11:11 -22.55393 -44.68188 4504 ft 118 kts 248°
2026-04-12 11:12 -22.55685 -44.69006 4509 ft 118 kts 248°
2026-04-12 11:12 -22.55973 -44.69847 4510 ft 120 kts 251°
2026-04-12 11:12 -22.56248 -44.70708 4503 ft 120 kts 250°
2026-04-12 11:12 -22.56541 -44.71544 4501 ft 118 kts 249°
2026-04-12 11:13 -22.56834 -44.72375 4513 ft 120 kts 249°
2026-04-12 11:13 -22.57134 -44.73225 4511 ft 121 kts 248°
2026-04-12 11:13 -22.57457 -44.74060 4506 ft 120 kts 248°
2026-04-12 11:13 -22.57765 -44.74887 4504 ft 117 kts 248°
2026-04-12 11:14 -22.58067 -44.75699 4508 ft 117 kts 249°
2026-04-12 11:14 -22.58357 -44.76522 4506 ft 117 kts 249°
2026-04-12 11:14 -22.58649 -44.77345 4506 ft 118 kts 249°
2026-04-12 11:14 -22.58940 -44.78177 4508 ft 119 kts 250°
2026-04-12 11:15 -22.59209 -44.79017 4516 ft 122 kts 251°
2026-04-12 11:15 -22.59493 -44.79878 4506 ft 122 kts 250°
2026-04-12 11:15 -22.59793 -44.80741 4502 ft 121 kts 249°
2026-04-12 11:15 -22.60099 -44.81584 4501 ft 121 kts 250°
2026-04-12 11:16 -22.60400 -44.82430 4501 ft 119 kts 249°
2026-04-12 11:16 -22.60700 -44.83272 4510 ft 122 kts 250°
2026-04-12 11:16 -22.61003 -44.84129 4507 ft 121 kts 250°
2026-04-12 11:16 -22.61302 -44.84987 4504 ft 120 kts 249°
2026-04-12 11:17 -22.61605 -44.85821 4508 ft 116 kts 249°
2026-04-12 11:17 -22.61907 -44.86669 4505 ft 123 kts 249°
2026-04-12 11:17 -22.62216 -44.87523 4510 ft 122 kts 249°
2026-04-12 11:17 -22.62535 -44.88373 4500 ft 120 kts 248°
2026-04-12 11:18 -22.62834 -44.89194 4512 ft 117 kts 248°
2026-04-12 11:18 -22.63135 -44.90027 4501 ft 119 kts 249°
2026-04-12 11:18 -22.63426 -44.90855 4519 ft 114 kts 251°
2026-04-12 11:18 -22.63717 -44.91665 4508 ft 117 kts 249°
2026-04-12 11:19 -22.64014 -44.92497 4505 ft 120 kts 251°
2026-04-12 11:19 -22.64300 -44.93350 4514 ft 119 kts 250°
2026-04-12 11:19 -22.64603 -44.94197 4512 ft 122 kts 249°
2026-04-12 11:19 -22.64900 -44.95041 4516 ft 121 kts 250°
2026-04-12 11:20 -22.65205 -44.95901 4508 ft 123 kts 248°
2026-04-12 11:20 -22.65513 -44.96764 4505 ft 123 kts 250°
2026-04-12 11:20 -22.65815 -44.97628 4500 ft 121 kts 250°
2026-04-12 11:20 -22.66113 -44.98480 4505 ft 121 kts 249°
2026-04-12 11:21 -22.66416 -44.99328 4509 ft 120 kts 250°
2026-04-12 11:21 -22.66742 -45.00154 4501 ft 121 kts 236°
2026-04-12 11:21 -22.67285 -45.00847 4504 ft 121 kts 229°
2026-04-12 11:21 -22.67820 -45.01560 4505 ft 122 kts 230°
2026-04-12 11:22 -22.68357 -45.02275 4508 ft 123 kts 230°
2026-04-12 11:22 -22.68891 -45.02996 4512 ft 122 kts 231°
2026-04-12 11:22 -22.69433 -45.03703 4507 ft 121 kts 227°
2026-04-12 11:22 -22.69984 -45.04383 4506 ft 120 kts 228°
2026-04-12 11:23 -22.70512 -45.05070 4509 ft 118 kts 229°
2026-04-12 11:23 -22.71036 -45.05768 4503 ft 120 kts 233°
2026-04-12 11:23 -22.71517 -45.06506 4503 ft 119 kts 233°
2026-04-12 11:23 -22.72020 -45.07217 4506 ft 120 kts 232°
2026-04-12 11:24 -22.72547 -45.07930 4507 ft 122 kts 231°
2026-04-12 11:24 -22.73080 -45.08644 4501 ft 122 kts 230°
2026-04-12 11:24 -22.73617 -45.09348 4504 ft 121 kts 230°
2026-04-12 11:24 -22.74147 -45.10061 4504 ft 122 kts 231°
2026-04-12 11:25 -22.74679 -45.10775 4503 ft 121 kts 230°
2026-04-12 11:25 -22.75212 -45.11482 4500 ft 120 kts 230°
2026-04-12 11:25 -22.75740 -45.12186 4488 ft 122 kts 230°
2026-04-12 11:25 -22.76270 -45.12902 4359 ft 117 kts 232°
2026-04-12 11:26 -22.76722 -45.13589 4229 ft 109 kts 247°
2026-04-12 11:26 -22.76983 -45.14367 4104 ft 110 kts 250°
2026-04-12 11:26 -22.77255 -45.15141 3972 ft 109 kts 250°
2026-04-12 11:26 -22.77520 -45.15896 3846 ft 107 kts 250°
2026-04-12 11:27 -22.77779 -45.16626 3815 ft 102 kts 250°
2026-04-12 11:27 -22.78019 -45.17333 3802 ft 99 kts 251°
2026-04-12 11:27 -22.78249 -45.18015 3806 ft 97 kts 251°
2026-04-12 11:27 -22.78399 -45.18715 3802 ft 95 kts 275°
2026-04-12 11:28 -22.78370 -45.19429 3804 ft 94 kts 274°
2026-04-12 11:28 -22.78355 -45.20126 3806 ft 93 kts 274°
2026-04-12 11:28 -22.78344 -45.20834 3811 ft 95 kts 274°
2026-04-12 11:28 -22.78324 -45.21550 3807 ft 92 kts 274°
2026-04-12 11:29 -22.78345 -45.22244 3801 ft 91 kts 252°
2026-04-12 11:29 -22.78792 -45.22580 3795 ft 79 kts 175°
2026-04-12 11:29 -22.79309 -45.22593 3802 ft 71 kts 179°
2026-04-12 11:29 -22.79826 -45.22612 3790 ft 81 kts 177°
2026-04-12 11:30 -22.80412 -45.22628 3725 ft 87 kts 178°
2026-04-12 11:30 -22.81028 -45.22621 3612 ft 92 kts 177°
2026-04-12 11:30 -22.81647 -45.22590 3411 ft 85 kts 163°
2026-04-12 11:30 -22.82134 -45.22295 3216 ft 79 kts 126°
2026-04-12 11:31 -22.82275 -45.21750 2978 ft 78 kts 87°
2026-04-12 11:31 -22.82238 -45.21150 2705 ft 78 kts 84°
2026-04-12 11:31 -22.82135 -45.20614 2501 ft 69 kts 64°
2026-04-12 11:31 -22.81735 -45.20414 2360 ft 65 kts 359°
2026-04-12 11:32 -22.81361 -45.20448 2237 ft 45 kts
2026-04-12 11:32 -22.81031 -45.20455 2150 ft 50 kts
2026-04-12 11:32 -22.80678 -45.20453 2062 ft 52 kts
2026-04-12 11:32 -22.80329 -45.20461 1945 ft 50 kts
2026-04-12 11:33 -22.79985 -45.20467 1850 ft 50 kts
2026-04-12 11:33 -22.79649 -45.20471 1761 ft 43 kts
2026-04-12 11:33 -22.79454 -45.20461 1756 ft 18 kts 357°
2026-04-12 11:33 -22.79339 -45.20474 1751 ft 16 kts 355°
2026-04-12 11:34 -22.79296 -45.20512 1756 ft 11 kts 224°
2026-04-12 11:34 -22.79374 -45.20556 1755 ft 12 kts 211°
2026-04-12 11:34 -22.79378 -45.20559 1755 ft 0 kts 212°
2026-04-12 11:35 -22.79404 -45.20574 1750 ft 8 kts 185°
2026-04-12 11:35 -22.79477 -45.20576 1750 ft 13 kts 182°
2026-04-12 11:35 -22.79502 -45.20577 1754 ft 0 kts 179°
2026-04-12 11:36 -22.79530 -45.20577 1752 ft 7 kts 178°
2026-04-12 11:36 -22.79543 -45.20578 1754 ft 4 kts 208°
2026-04-12 11:36 -22.79568 -45.20624 1752 ft 9 kts 249°
2026-04-12 11:37 -22.79593 -45.20667 1752 ft 7 kts 158°
2026-04-12 11:37 -22.79598 -45.20665 1748 ft 0 kts 151°